Flag for Germany Weather past 2 weeks in Norderstedt, Schleswig-Holstein, Germany

Now
59 °F

Partly sunny.


Feels Like: 57 °F
Forecast: 40 / 65 °F
Wind: 13 mph from Northwest

Location: Hamburg-Fuhlsbuettel

Current Time: May 23, 2015 at 7:09:12 PM

Latest Report: May 23, 2015 at 6:20 PM


Visibility: N/A

Pressure: 30.12 "Hg

Humidity: 55%

Dew point: 43 °F

Location of NorderstedtLocation

Historic Weather in Norderstedt — Graph

°F

Norderstedt temperature yesterday

Maximum temperature yesterday: 66 °F (at 4:20 PM)
Minimum temperature yesterday: 43 °F (at 3:50 AM)
Average temperature yesterday: 56 °F

Past Weeks' High & Low Weather Summary

 TemperatureHumidityPressure
High73 °F (May 11, 3:20 PM)100% (May 21, 2:20 AM)30.33 "Hg (May 21, 2:20 AM)
Low39 °F (May 16, 12:50 AM)38% (May 10, 7:20 PM)29.56 "Hg (May 19, 2:20 AM)
Average52 °F74%30.02 "Hg
* Reported May 8 5:20 PM — May 23 5:50 PM, Norderstedt, Weather by CustomWeather, © 2015

Note: Actual official high and low records may vary slightly from our data, if they occured in-between our weather recording intervals... More about our weather records

Advertising

Norderstedt weather history for previous 24 hours

 ConditionsComfort  
Time TempWeatherWind HumidityBarometerVisibility
5:50 PM
Sat, May 23
59 °FPartly sunny.13 mph55%30.12 "HgN/A
5:20 PM61 °FPartly sunny.12 mph55%30.12 "HgN/A
4:50 PM61 °FPartly sunny.12 mph52%30.12 "HgN/A
4:20 PM61 °FPartly sunny.9 mph52%30.12 "HgN/A
3:50 PM61 °FPartly sunny.9 mph52%30.12 "HgN/A
3:20 PM59 °FPartly sunny.9 mph55%30.12 "HgN/A
2:50 PM59 °FPartly sunny.8 mph55%30.12 "HgN/A
2:20 PM57 °FBroken clouds.12 mph59%30.15 "HgN/A
1:50 PM59 °FBroken clouds.8 mph63%30.15 "HgN/A
1:20 PM55 °FBroken clouds.5 mph72%30.15 "HgN/A
12:50 PM54 °FPartly sunny.9 mph82%30.15 "HgN/A
12:20 PM52 °FScattered showers. Partly sunny.7 mph94%30.15 "HgN/A
11:50 AM52 °FDrizzle. Partly sunny.9 mph94%30.15 "HgN/A
11:20 AM52 °FDrizzle. Partly sunny.9 mph94%30.15 "Hg6 mi
10:50 AM52 °FDrizzle. Partly sunny.6 mph94%30.15 "Hg6 mi
10:20 AM50 °FDrizzle. Partly sunny.7 mph94%30.15 "Hg6 mi
9:50 AM52 °FDrizzle. Low clouds.9 mph94%30.15 "Hg5 mi
9:20 AM52 °FDrizzle. Partly sunny.9 mph94%30.15 "Hg5 mi
8:50 AM54 °FDrizzle. Partly sunny.7 mph94%30.12 "Hg5 mi
8:20 AM54 °FDrizzle. Low clouds.9 mph94%30.12 "Hg5 mi
7:50 AM54 °FDrizzle. Partly sunny.7 mph88%30.12 "HgN/A
7:20 AM54 °FPartly sunny.8 mph88%30.12 "HgN/A
6:50 AM54 °FPartly sunny.5 mph82%30.12 "HgN/A
6:20 AM54 °FPartly sunny.6 mph82%30.12 "HgN/A
5:50 AM54 °FPassing clouds.5 mph82%30.12 "HgN/A
5:20 AM54 °FPassing clouds.5 mph82%30.12 "HgN/A
4:50 AM54 °FClear.6 mph82%30.12 "Hg10 mi
4:20 AM55 °FPassing clouds.7 mph77%30.12 "HgN/A
3:50 AM54 °FClear.5 mph82%30.12 "Hg10 mi
3:20 AM54 °FClear.5 mph82%30.12 "Hg10 mi
2:50 AM54 °FClear.3 mph82%30.15 "Hg10 mi
2:20 AM54 °FPassing clouds.3 mph77%30.15 "HgN/A
1:50 AM55 °FClear.3 mph72%30.15 "Hg10 mi
1:20 AM55 °FClear.5 mph77%30.15 "Hg10 mi
12:50 AM55 °FPassing clouds.5 mph72%30.15 "HgN/A
12:20 AM55 °FClear.7 mph72%30.15 "Hg10 mi
11:50 PM
Fri, May 22
55 °FClear.3 mph72%30.15 "Hg10 mi
11:20 PM57 °FClear.6 mph67%30.18 "Hg10 mi
10:50 PM55 °FClear.3 mph72%30.18 "Hg10 mi
10:20 PM55 °FSunny.5 mph72%30.18 "Hg10 mi
9:50 PM57 °FSunny.8 mph67%30.18 "Hg10 mi
9:20 PM61 °FSunny.8 mph63%30.15 "Hg10 mi
8:50 PM61 °FSunny.10 mph68%30.15 "Hg10 mi
8:20 PM63 °FSunny.9 mph59%30.15 "Hg10 mi
7:50 PM63 °FSunny.6 mph56%30.15 "Hg10 mi
7:20 PM64 °FSunny.5 mph56%30.15 "Hg10 mi
Weather by CustomWeather, © 2015

See weather overviewHow to use our weather pages